User: anonymous   Login
Location: Taupo
(38.6830°S, 176.0830°E)
Time: 22:55:14
(UTC+13:00)
Language:

BREEZE-M DEB (TANK) - Orbit

View from above orbital plane
View from above orbital plane
View from above satellite
View from above satellite

Ground track
Ground track

The orbit data is extracted from the following two-line orbital elements,

1 34712U 09016C   19084.36569608 +.00001383 +00000-0 +17244-3 0  9994
2 34712 046.0552 142.1628 5072915 322.9366 011.0009 05.52099638195716
Epoch (UTC): 25 March 2019 08:46:36
Eccentricity: 0.5072915
inclination: 46.0552°
perigee height: 284 km
apogee height: 14004 km
right ascension of ascending node: 142.1628°
argument of perigee: 322.9366°
revolutions per day: 5.52099638
mean anomaly at epoch: 11.0009°
orbit number at epoch: 19571

The dashed part of the orbit path shows where the satellite is in the earth's shadow,  

DLR